[[{"header":{"parameterUnit":"m.s-1","parameterCategory":1,"la1":30.2991,"la2":30.254,"lo1":-89.0895,"lo2":-89.0444,"dy":0.0017,"dx":0.0017,"nx":28,"ny":28,"refTime":"2025-03-31T09:00:00:Z","depth":0,"parameterNumber":2,"parameterNumberName":"U-component_of_WINDS"},"data":[0,0,0,0,0,0,0,0,0,0,0,0,0,0,0,0,0,0,0,0,0,0,0,0,0,0,0,0,0,0,0,0,0,0,0,0,0,0,0,0,0,0,0,0,0,0,0,0,0,0,0,0,0,0,0,0,0,0,1.1078,1.1077,0,1.1017,1.1016,1.1015,1.0948,1.0947,1.0946,1.0945,1.0883,1.0882,1.0881,0,0,0,0,0,0,0,0,0,0,0,0,0,1.1136,1.1135,1.1078,1.1077,1.1076,1.1017,1.1016,1.1015,1.0948,1.0947,1.0946,1.0945,1.0883,1.0882,1.0881,0,0,0,0,0,0,0,0,0,0,0,0,0,1.1096,1.1135,1.1078,1.1036,1.1031,1.1017,1.1016,1.1015,1.0949,1.0947,1.0946,1.0944,1.0883,1.0882,1.0881,1.0903,0,0,1.0877,1.0877,0,0,0,0,0,0,0,0,1.1099,1.1094,1.1043,1.1039,1.1034,1.0989,1.1013,1.0977,1.0949,1.098,1.0945,1.0944,1.0919,1.0915,1.0907,1.09,1.0897,1.0877,1.0877,1.0876,1.0876,0,0,0,0,0,0,0,1.1102,1.1097,1.1053,1.1042,1.1036,1.102,1.1013,1.1006,1.0958,1.0977,1.0972,1.0966,1.0916,1.0908,1.0905,1.0896,1.0877,1.0876,1.0876,1.0875,1.0905,1.0907,0,0,0,0,0,0,1.1111,1.1099,1.1055,1.1052,1.1063,1.102,1.1012,1.1005,1.0958,1.095,1.0967,1.0963,1.0911,1.0906,1.0902,1.0925,1.0876,1.0875,1.0874,1.0904,1.0906,1.0907,0,0,0,0,0,0,1.1112,1.1107,1.1058,1.1074,1.1067,1.1021,1.1013,1.1004,1.0996,1.0951,1.0942,1.0968,1.0909,1.0904,1.0903,1.0922,1.0874,1.0873,1.0902,1.0904,1.0907,1.0972,0,0,0,0,0,0,1.1114,1.1108,1.1116,1.1075,1.1066,1.106,1.1014,1.1004,1.0994,1.0988,1.0949,1.0941,1.0908,1.0905,1.0902,1.092,1.0872,1.09,1.0903,1.0906,1.0968,1.0976,1.0983,0,0,0,0,0,1.1116,1.1137,1.1117,1.1112,1.1075,1.1062,1.1056,1.1018,1.0996,1.1003,1.0975,1.0942,1.0921,1.0906,1.0902,1.0919,1.0899,1.0902,1.0906,1.0964,1.0974,1.0983,0,0,0,0,0,0,1.1181,1.113,1.1108,1.1115,1.1094,1.105,1.1059,1.103,1.1014,1.1008,1.0961,1.0953,1.0959,1.0939,1.0923,1.0938,1.0905,1.0908,1.0951,1.096,1.0968,1.0972,1.0872,0,0,0,0,0,1.1196,1.119,1.1146,1.1157,1.1147,1.1105,1.1098,1.107,1.1045,1.1036,1.1007,1.0984,1.0972,1.0965,1.0951,1.0965,1.0955,1.0974,1.0982,1.0989,1.0991,1.0997,1.1006,1.0918,1.0918,1.0918,0,0,1.1227,1.1199,1.1198,1.1169,1.1149,1.1143,1.1097,1.1093,1.1089,1.1035,1.1033,1.1011,1.0982,1.0989,1.0991,1.0973,1.1014,1.0993,1.0998,1.0998,1.1002,1.101,1.1017,1.0921,1.092,1.092,0,0,1.1281,1.1259,1.1266,1.1247,1.1217,1.1189,1.1191,1.1152,1.1136,1.1133,1.1093,1.1087,1.1067,1.1048,1.1036,1.1085,1.1054,1.1081,1.1121,1.1128,1.1135,1.114,1.1158,1.1165,1.1084,1.1085,1.1085,0,1.1323,1.1314,1.1273,1.1272,1.126,1.1212,1.1219,1.1202,1.1169,1.1162,1.1143,1.1118,1.1095,1.1097,1.1109,1.1101,1.1101,1.1086,1.1137,1.1142,1.1147,1.1163,1.117,1.1088,1.1088,1.1087,1.1087,0,1.1367,1.1361,1.137,1.1341,1.133,1.1333,1.1293,1.1288,1.1261,1.1236,1.1234,1.1205,1.1185,1.1184,1.1158,1.1182,1.1172,1.1146,1.1111,1.116,1.1174,1.118,1.1093,1.1092,1.1091,1.109,0,0,1.1459,1.1408,1.1412,1.1398,1.1362,1.1356,1.1357,1.1338,1.1335,1.1314,1.1313,1.1299,1.1274,1.1261,1.1232,1.1238,1.1278,1.121,1.1209,1.1224,1.1304,1.1325,1.1332,1.1258,1.1259,1.126,1.1307,0,1.1506,1.1505,1.1469,1.1478,1.1472,1.1427,1.1427,1.1405,1.1382,1.1373,1.1347,1.1337,1.1305,1.1297,1.1301,1.1273,1.1294,1.1269,1.1257,1.1258,1.1266,1.134,1.1361,1.1406,1.1312,1.1313,1.1314,0,1.1561,1.1545,1.1553,1.1518,1.1514,1.1515,1.1495,1.1488,1.1462,1.1445,1.1431,1.1399,1.1397,1.1365,1.1362,1.1346,1.134,1.1325,1.1326,1.1323,1.1289,1.1339,1.142,1.1427,1.1322,1.1321,1.1321,0,1.1628,1.1607,1.161,1.1599,1.1558,1.156,1.1543,1.1516,1.1507,1.149,1.1484,1.1467,1.1457,1.1445,1.1409,1.1389,1.1411,1.1376,1.1396,1.1397,1.1403,1.1403,1.1484,1.1399,1.1399,1.1398,1.1398,0,1.1684,1.1691,1.1639,1.1641,1.1648,1.1606,1.1614,1.1593,1.1569,1.1566,1.1526,1.1523,1.1477,1.1469,1.1441,1.1444,1.144,1.1425,1.1418,1.1429,1.1431,1.1424,1.142,1.14,1.14,1.14,1.1399,0,1.1759,1.1725,1.1724,1.1686,1.1676,1.1683,1.165,1.165,1.1624,1.1621,1.1617,1.1577,1.1566,1.153,1.151,1.1491,1.1502,1.1488,1.1511,1.1506,1.1529,1.1528,1.1608,1.1616,1.1527,1.1528,1.1528,0,1.1797,1.1802,1.1764,1.1759,1.1744,1.1737,1.1728,1.1688,1.168,1.1652,1.1656,1.1642,1.1629,1.1614,1.1583,1.1567,1.1552,1.1582,1.155,1.1561,1.1553,1.1553,1.1553,1.1588,1.159,1.1591,1.1591,0,1.1869,1.1852,1.1841,1.1824,1.1815,1.18,1.1782,1.1781,1.1736,1.173,1.1719,1.1709,1.1689,1.1676,1.1656,1.1638,1.1607,1.1602,1.1606,1.1617,1.163,1.1624,1.153,1.16,1.1599,1.1598,1.1598,1.1598,1.1926,1.1928,1.1903,1.1892,1.1875,1.186,1.1858,1.1833,1.1823,1.1804,1.1781,1.1773,1.1748,1.1718,1.1703,1.1696,1.1679,1.1685,1.1686,1.1688,1.1694,1.1632,1.1692,1.1692,1.1692,1.1691,1.1691,0,1.1996,1.1977,1.1968,1.1945,1.1937,1.191,1.189,1.1884,1.1878,1.1858,1.1846,1.1834,1.1821,1.179,1.1774,1.1775,1.176,1.1772,1.1771,1.1768,1.171,1.1708,1.1784,1.1784,1.1784,1.1784,1.1784,1.1784,1.2031,1.2033,1.2014,1.2008,1.1989,1.1981,1.1972,1.1958,1.1941,1.193,1.1919,1.1899,1.1874,1.1857,1.1845,1.1836,1.1832,1.1848,1.1835,1.1781,1.1772,1.1763,1.1761,1.1848,1.1848,1.1893,1.1894,1.1894]},{"header":{"parameterUnit":"m.s-1","parameterCategory":1,"la1":30.2991,"la2":30.254,"lo1":-89.0895,"lo2":-89.0444,"dy":0.0017,"dx":0.0017,"nx":28,"ny":28,"refTime":"2025-03-31T09:00:00:Z","depth":0,"parameterNumber":3,"parameterNumberName":"V-component_of_WINDS"},"data":[0,0,0,0,0,0,0,0,0,0,0,0,0,0,0,0,0,0,0,0,0,0,0,0,0,0,0,0,0,0,0,0,0,0,0,0,0,0,0,0,0,0,0,0,0,0,0,0,0,0,0,0,0,0,0,0,0,0,5.1342,5.1344,0,5.1511,5.1513,5.1515,5.1527,5.1525,5.1523,5.1522,5.1695,5.1701,5.1707,0,0,0,0,0,0,0,0,0,0,0,0,0,5.1034,5.1039,5.1342,5.1344,5.1346,5.1511,5.1513,5.1515,5.1528,5.1525,5.1523,5.1521,5.1693,5.17,5.1708,0,0,0,0,0,0,0,0,0,0,0,0,0,5.1181,5.1041,5.1342,5.1372,5.1377,5.151,5.1513,5.1516,5.1528,5.1525,5.1522,5.152,5.169,5.17,5.1709,5.1823,0,0,5.1738,5.1742,0,0,0,0,0,0,0,0,5.1173,5.1193,5.1366,5.137,5.1376,5.1495,5.1468,5.1619,5.1529,5.1471,5.1522,5.1518,5.1631,5.1645,5.1683,5.1832,5.1839,5.1739,5.1745,5.1749,5.1751,0,0,0,0,0,0,0,5.1163,5.1186,5.1409,5.1368,5.1374,5.1378,5.1396,5.1496,5.1564,5.1475,5.1477,5.1497,5.1633,5.1674,5.1687,5.1842,5.1739,5.1747,5.1753,5.1757,5.2096,5.2099,0,0,0,0,0,0,5.1146,5.1177,5.1404,5.1414,5.1265,5.1386,5.1406,5.146,5.1563,5.1576,5.1499,5.1496,5.1659,5.1676,5.1693,5.1836,5.1749,5.1758,5.1763,5.2093,5.2097,5.2101,0,0,0,0,0,0,5.114,5.1167,5.1397,5.1296,5.1326,5.1395,5.1454,5.1464,5.1505,5.1581,5.1593,5.1528,5.1657,5.168,5.1792,5.1842,5.1762,5.1771,5.2089,5.2094,5.2099,5.2122,0,0,0,0,0,0,5.1131,5.1164,5.1207,5.1297,5.1331,5.1492,5.1457,5.147,5.1521,5.152,5.1611,5.1624,5.1657,5.1777,5.1801,5.1854,5.1778,5.2085,5.2091,5.2097,5.2117,5.2127,5.2136,0,0,0,0,0,5.112,5.1207,5.121,5.1237,5.1387,5.1495,5.1514,5.155,5.1525,5.157,5.1619,5.1621,5.1833,5.1789,5.1816,5.1872,5.2082,5.209,5.2097,5.2113,5.2125,5.2136,0,0,0,0,0,0,5.1121,5.1219,5.1223,5.1341,5.141,5.1497,5.1554,5.1562,5.1639,5.1634,5.1676,5.1697,5.1808,5.1851,5.18,5.199,5.1955,5.1968,5.1958,5.197,5.1979,5.1967,5.1786,0,0,0,0,0,5.1135,5.1214,5.1296,5.1392,5.1426,5.1484,5.1533,5.1555,5.1627,5.1656,5.1714,5.1784,5.1867,5.1921,5.2001,5.2123,5.2145,5.2175,5.2185,5.2192,5.2203,5.2274,5.2289,5.2125,5.2125,5.2125,0,0,5.1165,5.1228,5.1275,5.1394,5.145,5.1532,5.1509,5.1596,5.1658,5.167,5.178,5.1824,5.1906,5.2024,5.2079,5.2064,5.2254,5.2202,5.2207,5.2214,5.2283,5.2299,5.2313,5.213,5.2129,5.2128,0,0,5.1262,5.1317,5.1404,5.1461,5.1546,5.1584,5.1605,5.1692,5.1722,5.1833,5.1845,5.1919,5.206,5.2119,5.2167,5.2289,5.2295,5.2314,5.2364,5.2432,5.2445,5.2457,5.2503,5.2518,5.2325,5.2325,5.2325,0,5.1288,5.1412,5.1449,5.1537,5.159,5.1605,5.1695,5.1748,5.1855,5.1892,5.1873,5.2052,5.2108,5.2242,5.2272,5.231,5.2337,5.2304,5.244,5.2452,5.2464,5.2508,5.2525,5.2327,5.2327,5.2327,5.2327,0,5.1442,5.1527,5.1588,5.1692,5.1752,5.184,5.1892,5.1948,5.1965,5.2006,5.212,5.2188,5.2284,5.2317,5.2334,5.2454,5.2443,5.2431,5.2397,5.2481,5.2523,5.254,5.233,5.2329,5.2329,5.2328,0,0,5.1543,5.1667,5.1689,5.1738,5.1833,5.1901,5.1991,5.2085,5.2134,5.2207,5.2285,5.2405,5.2397,5.2452,5.2476,5.2536,5.2631,5.2518,5.252,5.2538,5.277,5.2779,5.2798,5.2635,5.2638,5.2641,5.2764,0,5.1652,5.1813,5.185,5.1988,5.207,5.2087,5.2166,5.2234,5.2275,5.2351,5.2396,5.2482,5.2462,5.2496,5.2556,5.2607,5.2679,5.2598,5.271,5.2713,5.269,5.282,5.2829,5.2942,5.2781,5.2784,5.2786,0,5.18,5.1878,5.2025,5.2113,5.2149,5.2219,5.2309,5.2381,5.2459,5.2485,5.2548,5.2567,5.2663,5.2624,5.2758,5.2703,5.275,5.2783,5.2788,5.2801,5.2755,5.2838,5.2979,5.2997,5.2812,5.281,5.2808,0,5.1862,5.2004,5.2111,5.2152,5.2256,5.2305,5.2351,5.2427,5.2482,5.2561,5.2598,5.2687,5.2736,5.2805,5.2849,5.2815,5.2981,5.2944,5.3007,5.3006,5.3041,5.3039,5.3194,5.3069,5.3069,5.3069,5.3068,0,5.1981,5.2071,5.2141,5.2207,5.2309,5.2351,5.2451,5.2497,5.2565,5.2641,5.266,5.2732,5.2784,5.2863,5.2897,5.3005,5.3027,5.3052,5.306,5.3051,5.3048,5.3084,5.3078,5.3073,5.3072,5.3071,5.3071,0,5.2067,5.2117,5.2236,5.2325,5.235,5.2422,5.2499,5.2565,5.2607,5.2704,5.2729,5.2795,5.289,5.294,5.3057,5.308,5.3202,5.3205,5.3176,5.318,5.324,5.3235,5.3425,5.3453,5.3308,5.3309,5.331,0,5.214,5.221,5.2308,5.2361,5.2408,5.2492,5.2549,5.2594,5.2652,5.2748,5.2803,5.2898,5.2977,5.3128,5.3187,5.3278,5.3285,5.3345,5.3298,5.3288,5.3288,5.3284,5.3293,5.3354,5.3355,5.3356,5.3357,0,5.2265,5.2288,5.2368,5.2459,5.2526,5.26,5.2672,5.2715,5.2772,5.2837,5.2934,5.2995,5.3116,5.3212,5.3308,5.3356,5.3367,5.3371,5.3391,5.3383,5.3364,5.3378,5.32,5.3367,5.3366,5.3365,5.3365,5.3364,5.2349,5.2413,5.2493,5.2583,5.2643,5.2711,5.2778,5.2829,5.291,5.3013,5.3035,5.3138,5.3217,5.3347,5.3399,5.3481,5.3469,5.3497,5.3504,5.3511,5.3515,5.335,5.3498,5.3498,5.3498,5.3498,5.3498,0,5.2477,5.253,5.2612,5.2714,5.2786,5.279,5.2871,5.2931,5.3022,5.3094,5.3172,5.3285,5.3379,5.3446,5.3542,5.3595,5.3603,5.3619,5.3616,5.3628,5.3519,5.3493,5.3611,5.3611,5.3611,5.3611,5.3611,5.3611,5.2552,5.2662,5.2693,5.2833,5.2885,5.2987,5.3034,5.3097,5.3156,5.3282,5.3359,5.3403,5.3475,5.3576,5.3663,5.368,5.3715,5.3732,5.375,5.3647,5.3635,5.3624,5.36,5.3738,5.3738,5.3852,5.3853,5.3854]}]]